Back to catalog

STARLINK-38144

AliveCommunicationsSSO
NORAD 100256·PAYLOAD·🇺🇸 United States

Launched Aug 8, 2026 from Vandenberg Space Force Base

Loading…

Next Passes (next 24 hours)

TLE

FreshSource: Space-Track

Epoch: Sep 14, 2026, 01:28 UTC

1 A0256U 26181L   26257.06157468  .00151318  00000-0  99337-3 0  9993
2 A0256  97.2825 300.2895 0003368  84.0131 276.1518 15.75281397  6949

Track STARLINK-38144 in real time with AllMySat

Download on the App Store